SCP
0 0 0 0 0 0 0 0 0 0 0 0 0 0 0 0 0 0 0 0 0 0 0 0 0 0 0 0 0 0 0 0 0 0 0 0 0 0 0 0 0 0 0 0
0 0 0 0 0 0 0 0 0 0 0 0 0 0 0 0 0 0 0 0 0 0 -0 -0 -0 0 0 0 0 0 0 0 0 0 0 0 0 0 0 0 0 0 0 0
0 0 0 0 0 0 0 0 0 0 0 0 0 0 0 0 0 0 0 0 0 0 -0 -0 -0 -0 0 0 0 0 0 0 0 0 0 0 0 0 0 0 0 0 0 0
0 0 0 0 0 0 0 0 0 0 0 0 0 0 0 0 0 0 -0 0 -0 0 0 0 -0 -0 0 0 0 0 0 0 0 0 0 0 0 0 0 0 0 0 0 0
0 0 0 0 0 0 0 0 0 0 0 0 0 0 0 0 0 0 -0 -0 -0 -0 -0 -0 -0 -0 0 0 0 0 0 0 0 0 0 0 0 0 0 0 0 0 0 0
0 0 0 0 0 0 0 0 0 0 0 0 0 0 0 0 0 0 0 -0 -0 0 -0 -0 -0 -0 -0 0 0 0 0 0 0 0 0 0 0 0 0 0 0 0 0 0
0 0 0 0 0 0 0 0 0 0 0 0 0 0 0 0 0 0 0 0 -0 0 0 -0 -0 -0 -0 -0 -0 0 0 0 0 0 0 0 0 0 0 0 0 0 0 0
0 0 0 0 0 0 0 0 0 0 0 0 0 0 0 0 0 0 0 0 -0 0 0 -0 -0 -0 -0 -0 -0 0 0 0 0 0 0 0 0 0 0 0 0 0 0 0
0 0 0 0 0 0 0 0 0 0 0 0 0 0 0 0 0 0 0 -0 -0 -0 -0 0 -0 -0 -0 -0 -0 0 0 0 0 0 0 0 0 0 0 0 0 0 0 0
0 0 0 0 0 0 0 0 0 0 0 0 0 0 0 0 -0 -0 0 0 -0 0 0 -0 0 -0 0 0 0 0 0 0 0 0 0 0 0 0 0 0 0 0 0 0
0 0 0 0 0 0 0 0 0 0 0 0 0 0 0 0 -0 -0 0 -0 -0 0 0 -0 -0 -0 0 0 0 0 0 0 0 0 0 0 0 0 0 0 0 0 0 0
0 0 0 0 0 0 0 0 0 0 0 0 0 0 0 0 0 -0 -0 -0 -0 0 -0 -0 -0 -0 0 0 0 0 0 0 0 0 0 0 0 0 0 0 0 0 0 0
0 0 0 0 0 0 0 0 0 0 0 0 0 0 0 0 0 0 -0 -0 -0 0 0 0 0 0 0 0 0 0 0 0 0 0 0 0 0 0 0 0 0 0 0 0
0 0 0 0 0 0 0 0 0 0 0 0 0 0 0 0 0 0 0 -0 -0 0 0 0 0 0 0 0 0 0 0 0 0 0 0 0 0 0 0 0 0 0 0 0
0 0 0 0 0 0 0 0 0 0 0 0 0 0 0 0 0 0 0 -0 -0 0 0 0 0 0 0 0 0 0 0 0 0 0 0 0 0 0 0 0 0 0 0 0
0 0 0 0 0 0 0 0 0 0 0 0 0 0 0 0 0 0 0 0 0 0 0 0 0 0 0 0 0 0 0 0 0 0 0 -0 0 0 -0 0 -0 0 0 0
0 0 0 0 0 0 0 0 0 0 0 0 0 0 0 0 0 0 0 0 0 0 0 0 0 0 0 0 0 0 0 0 0 0 0 -0 0 0 0 -0 0 0 0 0
0 0 0 0 0 0 0 0 0 0 0 0 0 0 0 0 0 0 0 0 0 0 0 0 0 0 0 0 -0 -0 0 0 0 -0 0 0 0 0 0 0 0 -0 -0 0
0 0 0 0 0 0 0 0 0 0 0 0 0 0 0 0 0 0 0 0 0 0 0 0 0 0 0 0 0 0 0 -0 -0 0 0 0 0 -0 0 -0 -0 -0 0 0
0 0 0 0 0 0 0 0 0 0 0 0 0 0 0 0 0 0 0 0 0 0 0 0 0 0 0 0 0 0 0 0 -0 -0 0 0 -0 -0 -0 -0 -0 -0 0 0
0 0 0 0 0 0 0 0 0 0 0 0 0 0 0 0 0 0 0 0 -0 -0 0 -0 -0 0 0 0 0 0 0 0 0 -0 -0 -0 -0 -0 -0 -0 0 0 0 -0
0 -0 -0 0 0 0 0 0 0 0 0 0 0 0 0 0 0 0 0 0 0 -0 -0 -0 -0 -0 -0 -0 -0 0 0 0 -0 -0 -0 -0 -0 0 0 0 0 0 -0 0
0 0 -0 -0 -0 0 -0 0 0 0 0 0 0 0 0 0 0 0 0 0 -0 -0 -0 -0 -0 -0 -0 -0 -0 0 0 -0 0 0 0 0 -0 -0 -0 0 0 -0 0 0
0 0 0 -0 0 -0 -0 -0 0 0 0 0 0 0 0 0 0 0 0 0 -0 -0 -0 -0 -0 -0 -0 -0 -0 -0 0 0 0 0 0 0 0 0 0 0 0 0 0 0
0 0 0 0 -0 0 -0 -0 -0 -0 0 0 0 0 -0 -0 -0 -0 -0 -0 0 -0 -0 -0 -0 -0 -0 -0 0 0 0 0 0 0 0 0 0 0 0 0 0 0 0 0
0 0 0 0 -0 -0 -0 -0 -0 -0 -0 -0 -0 -0 -0 -0 -0 -0 -0 -0 -0 -0 0 0 0 -0 -0 0 0 0 0 0 0 0 0 0 0 0 0 0 0 0 0 0
Wind_Speed_500mb
7 7 3 3 7 11 12 19 34 30 17 5 15 16 14 4 7 22 31 37 37 40 45 39 36 30 21 17 21 15 13 22 28 31 33 33 35 35 38 39 36 35 34 37
7 4 5 2 11 9 17 30 21 15 5 9 18 24 10 6 4 15 22 33 39 45 50 45 42 35 23 20 20 15 14 13 20 23 31 35 36 34 38 37 36 39 38 38
8 2 1 2 7 7 18 13 12 27 20 14 9 14 2 5 11 18 27 31 35 42 48 54 50 44 31 24 24 17 19 16 16 22 26 30 33 34 35 37 39 39 39 40
7 2 3 6 6 7 12 11 22 28 5 5 3 8 3 3 6 13 33 39 42 44 48 49 52 48 41 34 27 18 19 13 12 16 22 27 31 34 33 37 41 38 36 38
4 2 5 3 3 7 20 32 15 8 5 5 4 2 9 4 5 24 33 40 40 41 47 51 52 48 43 37 34 21 16 13 9 12 18 22 27 30 27 28 34 31 29 35
7 2 5 5 8 6 21 7 3 7 3 5 7 3 8 3 6 15 30 38 40 41 42 46 46 44 43 39 36 26 17 14 8 6 11 16 20 23 26 22 23 21 22 26
10 3 4 7 10 4 13 10 8 11 9 8 4 6 13 8 10 6 21 40 40 39 40 44 51 52 49 43 38 29 21 13 12 7 5 10 13 18 18 19 18 16 17 22
8 12 4 6 7 6 7 5 8 9 6 12 8 10 8 9 14 12 31 28 30 36 39 42 46 47 48 47 43 37 30 22 16 9 5 1 10 11 11 12 13 13 14 20
7 10 3 5 4 8 6 7 5 4 4 6 7 9 5 8 10 17 35 26 36 37 38 40 42 43 45 44 42 39 33 26 19 10 5 3 5 8 8 10 10 12 18 24
8 7 4 6 5 3 2 7 2 5 8 11 12 10 7 6 17 24 24 29 39 36 36 36 39 39 38 38 35 32 31 28 21 12 10 12 13 13 12 14 19 22 25 27
9 5 4 6 2 10 2 2 3 5 7 5 8 13 9 7 8 17 23 34 37 35 33 32 33 32 31 29 29 30 28 23 18 14 17 21 26 23 25 29 33 33 35 31
10 8 6 12 7 4 5 10 6 7 8 5 3 14 8 10 8 8 26 31 29 26 26 26 26 27 27 27 24 25 23 22 21 20 23 33 37 36 37 42 49 52 54 59
11 2 7 11 4 2 3 7 6 3 6 8 6 12 3 3 5 17 19 30 29 23 23 21 22 25 24 23 21 24 22 25 24 27 35 43 51 52 56 60 71 76 80 84
12 4 12 12 12 6 4 7 9 6 5 6 12 18 14 13 12 18 21 21 20 21 20 17 18 20 20 21 22 24 27 30 34 39 46 57 70 81 85 86 84 86 85 85
6 7 4 10 6 5 7 13 11 16 10 9 7 10 24 14 9 9 14 16 18 20 19 16 16 19 19 19 21 25 31 40 55 70 76 82 82 84 85 85 78 76 78 79
2 3 2 7 3 5 10 18 16 13 7 15 4 15 9 17 15 13 16 19 20 20 14 11 14 18 22 22 26 30 42 55 66 73 78 79 79 80 83 82 80 75 77 73
8 7 3 10 4 6 12 15 15 6 7 10 5 13 2 9 19 20 20 15 18 21 16 11 17 20 24 31 35 43 47 52 62 67 76 76 72 72 72 72 71 69 67 64
10 8 5 7 8 7 12 4 7 12 13 16 6 7 10 4 14 19 8 9 21 23 24 21 22 24 27 31 36 39 47 53 59 63 66 64 63 63 61 58 59 56 55 55
4 7 1 2 4 14 4 9 14 13 12 21 17 7 14 12 4 8 5 14 28 32 30 29 28 30 32 35 41 45 48 50 53 57 56 56 54 53 51 50 49 48 46 45
10 10 6 4 5 9 14 8 14 7 8 21 27 17 24 25 5 8 25 25 30 32 31 30 31 32 33 36 39 41 44 47 48 49 49 47 45 43 43 42 40 39 36 37
6 5 8 6 8 18 10 12 18 10 12 34 57 56 51 12 10 26 35 34 34 36 37 37 37 36 36 35 35 37 39 40 41 41 41 39 37 34 34 32 31 29 28 28
15 17 9 6 5 15 24 15 14 10 5 49 61 65 61 29 30 38 38 39 38 38 37 35 33 32 32 32 30 28 30 32 33 33 32 30 28 26 25 22 22 21 20 18
5 12 10 19 12 5 67 10 37 9 13 45 63 65 57 45 44 50 49 46 41 39 38 37 36 33 31 31 30 25 25 25 25 24 23 22 21 19 20 19 16 14 12 11
9 12 5 5 7 18 45 67 24 23 17 47 55 61 65 56 53 54 53 52 51 48 46 43 42 39 35 33 30 28 23 22 23 23 23 22 19 17 15 12 10 7 5 5
5 15 10 11 19 16 42 58 67 41 27 43 54 59 60 57 59 59 58 55 51 48 48 47 42 39 34 33 31 30 28 25 23 22 21 20 17 14 11 9 7 6 3 3
21 15 12 12 14 7 10 14 61 66 49 50 63 64 66 61 58 63 61 56 54 54 52 51 47 44 42 39 37 35 33 32 32 30 25 20 18 17 16 14 11 10 11 12
Wind_Direction_500mb
16 62 309 307 199 230 262 265 272 277 271 276 255 266 261 243 357 2 1 346 339 341 342 339 332 338 328 298 285 288 273 242 236 223 225 238 245 253 259 260 259 255 251 236
16 212 189 165 256 274 282 281 281 279 223 297 279 277 219 196 119 27 1 340 338 343 351 348 346 345 351 339 319 309 278 241 223 222 222 236 251 261 266 263 257 253 249 232
183 187 73 113 283 332 305 245 302 293 319 274 282 288 299 211 167 17 3 343 343 346 347 349 349 351 354 353 340 313 301 252 225 223 227 236 253 263 270 261 256 254 246 233
229 342 28 329 282 83 309 202 314 300 10 292 96 287 271 174 264 12 348 350 343 344 351 352 351 355 2 358 351 329 299 278 238 227 229 240 255 264 268 265 259 252 242 234
253 5 41 333 216 122 249 326 302 288 168 24 200 33 266 25 334 334 338 342 343 344 349 354 356 357 1 4 2 353 330 304 262 227 232 244 260 269 265 256 260 248 243 231
269 42 137 245 308 180 309 348 264 37 99 13 247 134 269 213 226 310 329 339 343 345 349 355 359 1 5 9 7 5 346 335 315 261 239 250 259 254 244 246 263 251 240 228
337 139 92 33 345 52 8 357 341 355 7 240 240 237 261 198 220 240 320 334 348 345 351 357 3 6 8 9 9 9 2 349 354 348 298 241 259 248 229 242 248 250 230 217
79 325 56 2 130 194 343 103 130 270 315 294 298 240 284 200 220 289 340 340 345 355 357 3 8 7 8 9 10 12 13 11 16 25 20 357 264 244 202 235 231 224 217 206
105 285 123 91 108 115 299 44 199 106 229 303 249 260 160 230 271 316 339 342 352 357 3 9 10 11 8 9 10 11 14 18 21 29 60 120 175 170 189 214 206 191 179 165
196 348 149 133 65 23 139 154 77 40 11 311 297 287 259 321 337 328 330 334 346 357 5 13 15 15 14 11 12 18 18 23 28 42 90 111 116 128 135 149 155 155 158 160
132 125 257 74 181 179 335 329 101 126 149 209 305 280 180 196 263 305 316 335 343 352 7 17 22 21 21 19 18 25 28 37 55 78 99 112 108 114 125 132 131 136 138 142
183 139 270 220 244 214 138 187 160 129 249 227 238 276 185 172 234 310 334 336 343 352 12 24 26 28 30 35 35 40 46 51 64 86 106 112 112 115 121 121 123 125 123 129
185 216 352 349 13 83 202 194 196 140 60 215 160 279 166 125 46 30 4 339 345 356 20 30 32 38 40 46 51 57 61 71 84 100 108 113 115 116 114 112 117 114 116 114
131 154 181 199 215 135 293 213 188 181 126 194 227 289 301 342 8 357 22 357 357 6 25 33 35 41 45 55 64 76 81 88 95 100 106 109 110 110 109 109 106 103 101 99
114 221 162 262 191 142 225 238 195 202 226 179 272 245 299 309 298 347 22 25 27 24 30 33 38 48 52 64 82 89 100 106 111 110 109 107 109 108 107 105 101 100 102 103
76 267 186 282 95 193 266 250 225 228 242 272 298 283 220 302 335 19 27 33 46 43 35 43 58 71 78 81 91 106 114 116 115 111 109 106 103 103 104 107 109 110 107 106
141 142 77 274 320 317 323 222 184 203 227 163 175 228 21 336 350 2 16 39 57 67 52 59 85 93 100 101 108 118 116 114 111 113 110 109 108 108 108 109 109 107 106 105
139 112 125 275 3 8 243 206 171 209 223 207 294 234 179 168 328 325 353 65 92 89 86 77 82 91 102 114 122 123 123 120 117 112 111 112 111 108 107 107 105 104 105 104
115 120 117 114 250 290 357 222 184 169 280 183 187 188 148 131 351 300 168 118 106 107 111 113 112 113 116 118 120 118 115 113 112 112 113 112 110 108 107 107 108 105 102 100
108 95 117 166 142 219 235 241 194 145 312 181 171 173 157 151 94 245 179 153 137 132 131 129 126 125 125 127 126 123 121 119 117 114 111 109 107 106 106 104 102 100 99 94
161 182 186 193 254 285 225 163 148 79 234 168 179 171 163 176 174 159 170 167 157 149 145 141 136 132 127 124 125 127 126 124 119 119 118 117 115 112 108 108 105 100 94 88
169 157 191 152 216 292 154 115 163 216 140 176 177 179 182 183 169 167 170 173 167 163 158 151 147 143 141 138 140 142 137 133 130 129 128 125 120 120 119 112 107 105 98 91
258 190 177 190 214 232 185 214 196 207 203 183 184 185 182 178 176 174 174 174 172 170 166 164 161 163 162 158 156 162 156 147 140 137 137 137 139 142 141 136 122 116 108 93
239 180 209 54 264 226 218 220 217 217 218 196 192 187 186 185 179 179 180 181 181 180 178 177 178 177 178 176 172 170 174 167 166 168 166 165 163 160 153 148 142 133 100 53
187 148 193 262 275 266 254 229 225 216 218 200 197 197 194 191 187 187 187 191 190 188 188 190 189 187 188 191 190 189 188 191 191 189 185 184 183 181 184 191 196 213 243 307
189 190 178 223 229 201 270 263 226 216 215 206 200 197 200 201 199 193 195 194 195 196 197 200 199 199 200 203 206 206 205 206 208 207 202 201 209 216 219 225 239 261 267 258
Wind_Speed_850mb
7 7 3 3 7 11 12 19 34 30 17 5 15 16 14 4 7 22 31 37 37 40 45 39 36 30 21 17 21 15 13 22 28 31 33 33 35 35 38 39 36 35 34 37
7 4 5 2 11 9 17 30 21 15 5 9 18 24 10 6 4 15 22 33 39 45 50 45 42 35 23 20 20 15 14 13 20 23 31 35 36 34 38 37 36 39 38 38
8 2 1 2 7 7 18 13 12 27 20 14 9 14 2 5 11 18 27 31 35 42 48 54 50 44 31 24 24 17 19 16 16 22 26 30 33 34 35 37 39 39 39 40
7 2 3 6 6 7 12 11 22 28 5 5 3 8 3 3 6 13 33 39 42 44 48 49 52 48 41 34 27 18 19 13 12 16 22 27 31 34 33 37 41 38 36 38
4 2 5 3 3 7 20 32 15 8 5 5 4 2 9 4 5 24 33 40 40 41 47 51 52 48 43 37 34 21 16 13 9 12 18 22 27 30 27 28 34 31 29 35
7 2 5 5 8 6 21 7 3 7 3 5 7 3 8 3 6 15 30 38 40 41 42 46 46 44 43 39 36 26 17 14 8 6 11 16 20 23 26 22 23 21 22 26
10 3 4 7 10 4 13 10 8 11 9 8 4 6 13 8 10 6 21 40 40 39 40 44 51 52 49 43 38 29 21 13 12 7 5 10 13 18 18 19 18 16 17 22
8 12 4 6 7 6 7 5 8 9 6 12 8 10 8 9 14 12 31 28 30 36 39 42 46 47 48 47 43 37 30 22 16 9 5 1 10 11 11 12 13 13 14 20
7 10 3 5 4 8 6 7 5 4 4 6 7 9 5 8 10 17 35 26 36 37 38 40 42 43 45 44 42 39 33 26 19 10 5 3 5 8 8 10 10 12 18 24
8 7 4 6 5 3 2 7 2 5 8 11 12 10 7 6 17 24 24 29 39 36 36 36 39 39 38 38 35 32 31 28 21 12 10 12 13 13 12 14 19 22 25 27
9 5 4 6 2 10 2 2 3 5 7 5 8 13 9 7 8 17 23 34 37 35 33 32 33 32 31 29 29 30 28 23 18 14 17 21 26 23 25 29 33 33 35 31
10 8 6 12 7 4 5 10 6 7 8 5 3 14 8 10 8 8 26 31 29 26 26 26 26 27 27 27 24 25 23 22 21 20 23 33 37 36 37 42 49 52 54 59
11 2 7 11 4 2 3 7 6 3 6 8 6 12 3 3 5 17 19 30 29 23 23 21 22 25 24 23 21 24 22 25 24 27 35 43 51 52 56 60 71 76 80 84
12 4 12 12 12 6 4 7 9 6 5 6 12 18 14 13 12 18 21 21 20 21 20 17 18 20 20 21 22 24 27 30 34 39 46 57 70 81 85 86 84 86 85 85
6 7 4 10 6 5 7 13 11 16 10 9 7 10 24 14 9 9 14 16 18 20 19 16 16 19 19 19 21 25 31 40 55 70 76 82 82 84 85 85 78 76 78 79
2 3 2 7 3 5 10 18 16 13 7 15 4 15 9 17 15 13 16 19 20 20 14 11 14 18 22 22 26 30 42 55 66 73 78 79 79 80 83 82 80 75 77 73
8 7 3 10 4 6 12 15 15 6 7 10 5 13 2 9 19 20 20 15 18 21 16 11 17 20 24 31 35 43 47 52 62 67 76 76 72 72 72 72 71 69 67 64
10 8 5 7 8 7 12 4 7 12 13 16 6 7 10 4 14 19 8 9 21 23 24 21 22 24 27 31 36 39 47 53 59 63 66 64 63 63 61 58 59 56 55 55
4 7 1 2 4 14 4 9 14 13 12 21 17 7 14 12 4 8 5 14 28 32 30 29 28 30 32 35 41 45 48 50 53 57 56 56 54 53 51 50 49 48 46 45
10 10 6 4 5 9 14 8 14 7 8 21 27 17 24 25 5 8 25 25 30 32 31 30 31 32 33 36 39 41 44 47 48 49 49 47 45 43 43 42 40 39 36 37
6 5 8 6 8 18 10 12 18 10 12 34 57 56 51 12 10 26 35 34 34 36 37 37 37 36 36 35 35 37 39 40 41 41 41 39 37 34 34 32 31 29 28 28
15 17 9 6 5 15 24 15 14 10 5 49 61 65 61 29 30 38 38 39 38 38 37 35 33 32 32 32 30 28 30 32 33 33 32 30 28 26 25 22 22 21 20 18
5 12 10 19 12 5 67 10 37 9 13 45 63 65 57 45 44 50 49 46 41 39 38 37 36 33 31 31 30 25 25 25 25 24 23 22 21 19 20 19 16 14 12 11
9 12 5 5 7 18 45 67 24 23 17 47 55 61 65 56 53 54 53 52 51 48 46 43 42 39 35 33 30 28 23 22 23 23 23 22 19 17 15 12 10 7 5 5
5 15 10 11 19 16 42 58 67 41 27 43 54 59 60 57 59 59 58 55 51 48 48 47 42 39 34 33 31 30 28 25 23 22 21 20 17 14 11 9 7 6 3 3
21 15 12 12 14 7 10 14 61 66 49 50 63 64 66 61 58 63 61 56 54 54 52 51 47 44 42 39 37 35 33 32 32 30 25 20 18 17 16 14 11 10 11 12
Wind_Direction_850mb
16 62 309 307 199 230 262 265 272 277 271 276 255 266 261 243 357 2 1 346 339 341 342 339 332 338 328 298 285 288 273 242 236 223 225 238 245 253 259 260 259 255 251 236
16 212 189 165 256 274 282 281 281 279 223 297 279 277 219 196 119 27 1 340 338 343 351 348 346 345 351 339 319 309 278 241 223 222 222 236 251 261 266 263 257 253 249 232
183 187 73 113 283 332 305 245 302 293 319 274 282 288 299 211 167 17 3 343 343 346 347 349 349 351 354 353 340 313 301 252 225 223 227 236 253 263 270 261 256 254 246 233
229 342 28 329 282 83 309 202 314 300 10 292 96 287 271 174 264 12 348 350 343 344 351 352 351 355 2 358 351 329 299 278 238 227 229 240 255 264 268 265 259 252 242 234
253 5 41 333 216 122 249 326 302 288 168 24 200 33 266 25 334 334 338 342 343 344 349 354 356 357 1 4 2 353 330 304 262 227 232 244 260 269 265 256 260 248 243 231
269 42 137 245 308 180 309 348 264 37 99 13 247 134 269 213 226 310 329 339 343 345 349 355 359 1 5 9 7 5 346 335 315 261 239 250 259 254 244 246 263 251 240 228
337 139 92 33 345 52 8 357 341 355 7 240 240 237 261 198 220 240 320 334 348 345 351 357 3 6 8 9 9 9 2 349 354 348 298 241 259 248 229 242 248 250 230 217
79 325 56 2 130 194 343 103 130 270 315 294 298 240 284 200 220 289 340 340 345 355 357 3 8 7 8 9 10 12 13 11 16 25 20 357 264 244 202 235 231 224 217 206
105 285 123 91 108 115 299 44 199 106 229 303 249 260 160 230 271 316 339 342 352 357 3 9 10 11 8 9 10 11 14 18 21 29 60 120 175 170 189 214 206 191 179 165
196 348 149 133 65 23 139 154 77 40 11 311 297 287 259 321 337 328 330 334 346 357 5 13 15 15 14 11 12 18 18 23 28 42 90 111 116 128 135 149 155 155 158 160
132 125 257 74 181 179 335 329 101 126 149 209 305 280 180 196 263 305 316 335 343 352 7 17 22 21 21 19 18 25 28 37 55 78 99 112 108 114 125 132 131 136 138 142
183 139 270 220 244 214 138 187 160 129 249 227 238 276 185 172 234 310 334 336 343 352 12 24 26 28 30 35 35 40 46 51 64 86 106 112 112 115 121 121 123 125 123 129
185 216 352 349 13 83 202 194 196 140 60 215 160 279 166 125 46 30 4 339 345 356 20 30 32 38 40 46 51 57 61 71 84 100 108 113 115 116 114 112 117 114 116 114
131 154 181 199 215 135 293 213 188 181 126 194 227 289 301 342 8 357 22 357 357 6 25 33 35 41 45 55 64 76 81 88 95 100 106 109 110 110 109 109 106 103 101 99
114 221 162 262 191 142 225 238 195 202 226 179 272 245 299 309 298 347 22 25 27 24 30 33 38 48 52 64 82 89 100 106 111 110 109 107 109 108 107 105 101 100 102 103
76 267 186 282 95 193 266 250 225 228 242 272 298 283 220 302 335 19 27 33 46 43 35 43 58 71 78 81 91 106 114 116 115 111 109 106 103 103 104 107 109 110 107 106
141 142 77 274 320 317 323 222 184 203 227 163 175 228 21 336 350 2 16 39 57 67 52 59 85 93 100 101 108 118 116 114 111 113 110 109 108 108 108 109 109 107 106 105
139 112 125 275 3 8 243 206 171 209 223 207 294 234 179 168 328 325 353 65 92 89 86 77 82 91 102 114 122 123 123 120 117 112 111 112 111 108 107 107 105 104 105 104
115 120 117 114 250 290 357 222 184 169 280 183 187 188 148 131 351 300 168 118 106 107 111 113 112 113 116 118 120 118 115 113 112 112 113 112 110 108 107 107 108 105 102 100
108 95 117 166 142 219 235 241 194 145 312 181 171 173 157 151 94 245 179 153 137 132 131 129 126 125 125 127 126 123 121 119 117 114 111 109 107 106 106 104 102 100 99 94
161 182 186 193 254 285 225 163 148 79 234 168 179 171 163 176 174 159 170 167 157 149 145 141 136 132 127 124 125 127 126 124 119 119 118 117 115 112 108 108 105 100 94 88
169 157 191 152 216 292 154 115 163 216 140 176 177 179 182 183 169 167 170 173 167 163 158 151 147 143 141 138 140 142 137 133 130 129 128 125 120 120 119 112 107 105 98 91
258 190 177 190 214 232 185 214 196 207 203 183 184 185 182 178 176 174 174 174 172 170 166 164 161 163 162 158 156 162 156 147 140 137 137 137 139 142 141 136 122 116 108 93
239 180 209 54 264 226 218 220 217 217 218 196 192 187 186 185 179 179 180 181 181 180 178 177 178 177 178 176 172 170 174 167 166 168 166 165 163 160 153 148 142 133 100 53
187 148 193 262 275 266 254 229 225 216 218 200 197 197 194 191 187 187 187 191 190 188 188 190 189 187 188 191 190 189 188 191 191 189 185 184 183 181 184 191 196 213 243 307
189 190 178 223 229 201 270 263 226 216 215 206 200 197 200 201 199 193 195 194 195 196 197 200 199 199 200 203 206 206 205 206 208 207 202 201 209 216 219 225 239 261 267 258